• Em Portugal
  • Lista de países
  • Para 7 dias
  • Temperatura da água
  • Mapas de satélite
  • Mapa do tempo
  • Widgets de tempo
  • user-avatar
    Iniciar Sessão

    Previsão horária em Podwysokie

    Hoje, 18 Junho, Segunda-feira

    Tempo Temperatura Precipitação Vento Pressão Humidade
    00:00 +19°C° 0 mm 2 m/s 745 mmHg 78%
    01:00 +19°C° 0 mm 1 m/s 745 mmHg 79%
    02:00 +18°C° 0 mm 2 m/s 745 mmHg 84%
    03:00 +18°C° 0,1 mm 2 m/s 745 mmHg 85%
    04:00 +17°C° 0,1 mm 2 m/s 745 mmHg 87%
    05:00 +17°C° 0,1 mm 2 m/s 745 mmHg 88%
    06:00 +18°C° 0 mm 2 m/s 745 mmHg 84%
    07:00 +20°C° 0 mm 2 m/s 746 mmHg 80%
    08:00 +21°C° 0 mm 2 m/s 746 mmHg 76%
    09:00 +23°C° 0,6 mm 2 m/s 746 mmHg 72%
    10:00 +24°C° 0,6 mm 2 m/s 746 mmHg 68%
    11:00 +25°C° 0,6 mm 2 m/s 746 mmHg 64%
    12:00 +26°C° 0,6 mm 3 m/s 746 mmHg 64%
    13:00 +26°C° 0,6 mm 3 m/s 746 mmHg 63%
    14:00 +26°C° 0,6 mm 3 m/s 746 mmHg 62%
    15:00 +25°C° 0,6 mm 3 m/s 746 mmHg 65%
    16:00 +25°C° 0,6 mm 4 m/s 746 mmHg 67%
    17:00 +23°C° 0,6 mm 4 m/s 746 mmHg 70%
    18:00 +22°C° 0,1 mm 4 m/s 746 mmHg 73%
    19:00 +20°C° 0,1 mm 4 m/s 746 mmHg 75%
    20:00 +18°C° 0,1 mm 3 m/s 746 mmHg 78%
    21:00 +17°C° 0 mm 3 m/s 747 mmHg 80%
    22:00 +15°C° 0 mm 2 m/s 747 mmHg 82%
    23:00 +14°C° 0 mm 2 m/s 747 mmHg 83%

    Amanhã, 19 Junho, Terça-feira

    Tempo Temperatura Precipitação Vento Pressão Humidade
    00:00 +13°C° 0 mm 2 m/s 747 mmHg 82%
    01:00 +13°C° 0 mm 1 m/s 747 mmHg 81%
    02:00 +13°C° 0 mm 1 m/s 747 mmHg 80%
    03:00 +13°C° 0 mm 1 m/s 747 mmHg 79%
    04:00 +13°C° 0 mm 1 m/s 747 mmHg 78%
    05:00 +13°C° 0 mm 1 m/s 747 mmHg 77%
    06:00 +15°C° 0 mm 1 m/s 748 mmHg 72%
    07:00 +18°C° 0 mm 1 m/s 748 mmHg 67%
    08:00 +19°C° 0 mm 2 m/s 748 mmHg 62%
    09:00 +20°C° 0 mm 3 m/s 748 mmHg 61%
    10:00 +22°C° 0 mm 3 m/s 748 mmHg 59%
    11:00 +23°C° 0 mm 4 m/s 748 mmHg 57%
    12:00 +23°C° 0 mm 4 m/s 747 mmHg 58%
    13:00 +25°C° 0 mm 5 m/s 747 mmHg 58%
    14:00 +25°C° 0 mm 5 m/s 747 mmHg 58%
    15:00 +23°C° 0 mm 5 m/s 747 mmHg 63%
    16:00 +22°C° 0 mm 4 m/s 747 mmHg 68%
    17:00 +21°C° 0 mm 4 m/s 747 mmHg 73%
    18:00 +21°C° 0 mm 3 m/s 747 mmHg 76%
    19:00 +20°C° 0 mm 3 m/s 747 mmHg 79%
    20:00 +19°C° 0 mm 2 m/s 747 mmHg 83%
    21:00 +18°C° 0 mm 2 m/s 747 mmHg 86%
    22:00 +17°C° 0 mm 2 m/s 748 mmHg 90%
    23:00 +15°C° 0 mm 2 m/s 748 mmHg 93%

    Depois de amanhã, 20 Junho, Quarta-feira

    Tempo Temperatura Precipitação Vento Pressão Humidade
    00:00 +15°C° 0 mm 2 m/s 748 mmHg 94%
    01:00 +15°C° 0 mm 2 m/s 748 mmHg 94%
    02:00 +14°C° 0 mm 2 m/s 748 mmHg 94%
    03:00 +14°C° 0 mm 2 m/s 748 mmHg 94%
    04:00 +14°C° 0 mm 2 m/s 748 mmHg 95%
    05:00 +13°C° 0 mm 3 m/s 749 mmHg 95%
    06:00 +14°C° 0 mm 3 m/s 749 mmHg 87%
    07:00 +17°C° 0 mm 3 m/s 749 mmHg 80%
    08:00 +18°C° 0 mm 4 m/s 749 mmHg 72%
    09:00 +19°C° 0 mm 4 m/s 749 mmHg 67%
    10:00 +20°C° 0 mm 4 m/s 750 mmHg 62%
    11:00 +21°C° 0 mm 4 m/s 750 mmHg 57%
    12:00 +21°C° 0 mm 4 m/s 750 mmHg 55%
    13:00 +22°C° 0 mm 4 m/s 750 mmHg 54%
    14:00 +23°C° 0 mm 4 m/s 749 mmHg 52%
    15:00 +22°C° 0 mm 4 m/s 749 mmHg 53%
    16:00 +22°C° 0 mm 4 m/s 749 mmHg 55%
    17:00 +22°C° 0 mm 3 m/s 749 mmHg 56%
    18:00 +21°C° 0 mm 3 m/s 749 mmHg 62%
    19:00 +20°C° 0 mm 2 m/s 749 mmHg 69%
    20:00 +20°C° 0 mm 1 m/s 748 mmHg 75%
    21:00 +18°C° 0 mm 1 m/s 748 mmHg 79%
    22:00 +16°C° 0 mm 1 m/s 748 mmHg 82%
    23:00 +15°C° 0 mm 1 m/s 748 mmHg 86%

    21 Junho, Quinta-feira

    Tempo Temperatura Precipitação Vento Pressão Humidade
    00:00 +14°C° 0 mm 2 m/s 748 mmHg 86%
    01:00 +14°C° 0 mm 2 m/s 748 mmHg 87%
    02:00 +14°C° 0 mm 2 m/s 748 mmHg 87%
    03:00 +14°C° 0 mm 2 m/s 747 mmHg 87%
    04:00 +14°C° 0 mm 2 m/s 747 mmHg 87%
    05:00 +13°C° 0 mm 3 m/s 747 mmHg 86%
    06:00 +16°C° 0 mm 3 m/s 746 mmHg 80%
    07:00 +18°C° 0 mm 3 m/s 746 mmHg 73%
    08:00 +20°C° 0 mm 3 m/s 746 mmHg 67%
    09:00 +22°C° 0 mm 4 m/s 745 mmHg 62%
    10:00 +23°C° 0 mm 4 m/s 745 mmHg 57%
    11:00 +26°C° 0 mm 4 m/s 744 mmHg 52%
    12:00 +26°C° 0 mm 4 m/s 743 mmHg 52%
    13:00 +27°C° 0 mm 4 m/s 743 mmHg 53%
    14:00 +28°C° 0 mm 4 m/s 742 mmHg 53%
    15:00 +27°C° 0,2 mm 4 m/s 741 mmHg 58%
    16:00 +27°C° 0,2 mm 4 m/s 740 mmHg 63%
    17:00 +27°C° 0,2 mm 4 m/s 739 mmHg 68%
    18:00 +25°C° 1,1 mm 4 m/s 739 mmHg 74%
    19:00 +23°C° 1,1 mm 4 m/s 738 mmHg 81%
    20:00 +21°C° 1,1 mm 3 m/s 737 mmHg 87%
    21:00 +21°C° 1,8 mm 4 m/s 737 mmHg 90%
    22:00 +20°C° 1,8 mm 4 m/s 737 mmHg 92%
    23:00 +19°C° 1,8 mm 4 m/s 737 mmHg 95%

    22 Junho, Sexta-feira

    Tempo Temperatura Precipitação Vento Pressão Humidade
    00:00 +17°C° 0,4 mm 5 m/s 737 mmHg 94%
    01:00 +15°C° 0,4 mm 5 m/s 737 mmHg 94%
    02:00 +14°C° 0,4 mm 6 m/s 737 mmHg 93%
    03:00 +13°C° 0 mm 6 m/s 738 mmHg 93%
    04:00 +12°C° 0 mm 5 m/s 738 mmHg 93%
    05:00 +9°C° 0 mm 5 m/s 739 mmHg 93%
    06:00 +10°C° 0 mm 5 m/s 739 mmHg 88%
    07:00 +12°C° 0 mm 5 m/s 739 mmHg 83%
    08:00 +13°C° 0 mm 6 m/s 740 mmHg 77%
    09:00 +14°C° 0 mm 6 m/s 740 mmHg 72%
    10:00 +14°C° 0 mm 6 m/s 740 mmHg 67%
    11:00 +15°C° 0 mm 6 m/s 741 mmHg 61%
    12:00 +16°C° 0 mm 6 m/s 741 mmHg 58%
    13:00 +16°C° 0 mm 6 m/s 741 mmHg 54%
    14:00 +17°C° 0 mm 6 m/s 741 mmHg 50%
    15:00 +17°C° 0 mm 6 m/s 741 mmHg 52%
    16:00 +16°C° 0 mm 6 m/s 740 mmHg 53%
    17:00 +16°C° 0 mm 6 m/s 740 mmHg 55%
    18:00 +15°C° 0 mm 5 m/s 741 mmHg 60%
    19:00 +14°C° 0 mm 4 m/s 741 mmHg 65%
    20:00 +13°C° 0 mm 3 m/s 741 mmHg 70%
    21:00 +12°C° 0 mm 3 m/s 741 mmHg 73%
    22:00 +11°C° 0 mm 3 m/s 741 mmHg 76%
    23:00 +10°C° 0 mm 3 m/s 741 mmHg 79%

    23 Junho, Sábado

    Tempo Temperatura Precipitação Vento Pressão Humidade
    00:00 +9°C° 0 mm 3 m/s 741 mmHg 82%
    01:00 +9°C° 0 mm 3 m/s 741 mmHg 86%
    02:00 +8°C° 0 mm 3 m/s 741 mmHg 90%
    03:00 +8°C° 0 mm 3 m/s 742 mmHg 91%
    04:00 +8°C° 0 mm 3 m/s 742 mmHg 92%
    05:00 +8°C° 0 mm 3 m/s 742 mmHg 93%
    06:00 +10°C° 0 mm 3 m/s 742 mmHg 87%
    07:00 +11°C° 0 mm 3 m/s 742 mmHg 80%
    08:00 +13°C° 0 mm 3 m/s 742 mmHg 74%
    09:00 +16°C° 0,1 mm 3 m/s 742 mmHg 68%
    10:00 +17°C° 0,1 mm 4 m/s 742 mmHg 63%
    11:00 +18°C° 0,1 mm 4 m/s 742 mmHg 57%
    12:00 +18°C° 0,5 mm 4 m/s 742 mmHg 60%
    13:00 +17°C° 0,5 mm 5 m/s 742 mmHg 63%
    14:00 +17°C° 0,5 mm 5 m/s 742 mmHg 67%
    15:00 +16°C° 0,4 mm 5 m/s 742 mmHg 70%
    16:00 +15°C° 0,4 mm 5 m/s 742 mmHg 73%
    17:00 +15°C° 0,4 mm 5 m/s 742 mmHg 76%
    18:00 +14°C° 0,4 mm 5 m/s 742 mmHg 81%
    19:00 +13°C° 0,4 mm 4 m/s 742 mmHg 87%
    20:00 +12°C° 0,4 mm 4 m/s 742 mmHg 92%
    21:00 +12°C° 0,1 mm 3 m/s 743 mmHg 94%
    22:00 +11°C° 0,1 mm 3 m/s 743 mmHg 95%
    23:00 +11°C° 0,1 mm 3 m/s 743 mmHg 97%
    Mostrar mais